Regional Weather Roundup
Issued by NWS

Home | Current Version | Previous Version | Graphics & Text | Print | Product List | Glossary On
Versions: 1 2 3 4 5 6 7 8 9 10 11 12 13 14 15 16 17 18 19 20 21 22 23 24 25 26 27 28 29 30 31 32 33 34 35 36 37 38 39 40 41 42 43 44 45 46 47 48 49 50
000
ASUS43 KLOT 031608
RWRIL

ILLINOIS REGIONAL WEATHER ROUNDUP
NATIONAL WEATHER SERVICE CHICAGO/ROMEOVILLE IL
1100 AM CDT TUE MAY 03 2016

NOTE: "FAIR" INDICATES FEW OR NO CLOUDS BELOW 12,000 FEET WITH NO
SIGNIFICANT WEATHER AND/OR OBSTRUCTIONS TO VISIBILITY.

* THESE STATIONS ARE NOT UNDER NWS QUALITY CONTROL. THEY ALSO MAY NOT
  REPORT WEATHER SUCH AS PRECIPITATION OR FOG.

ILZ001-002-007-009-015-016-024-031700-
NORTHWEST ILLINOIS

CITY           SKY/WX    TMP DP  RH WIND       PRES   REMARKS
MOLINE         SUNNY     64  45  49 W13       29.99F
STERLING*      SUNNY     63  46  55 W10       29.97F
SAVANNA*       SUNNY     63  44  50 W9        29.97F
$$

ILZ003-004-008-010-011-017-018-031700-
NORTH CENTRAL ILLINOIS

CITY           SKY/WX    TMP DP  RH WIND       PRES   REMARKS
ROCKFORD       MOSUNNY   64  43  46 NW10      29.97F
FREEPORT*      SUNNY     62  46  54 W13G18    29.97F
ROCHELLE*      SUNNY     62  46  56 W10       29.96F
DE KALB*       SUNNY     61  47  59 NW8       29.96F
$$

ILZ005-006-012>014-019>023-031700-
NORTHEAST ILLINOIS

CITY           SKY/WX    TMP DP  RH WIND       PRES   REMARKS
CHICAGO-OHARE  MOSUNNY   61  40  45 VRB7      29.93F
CHICAGO-MIDWAY MOSUNNY   62  36  37 W8        29.94F
AURORA         SUNNY     63  47  55 NW10      29.96F
LANSING*       SUNNY     61  36  39 NW5       29.95F
JOLIET*        SUNNY     63  44  48 W6        29.96S
WAUKEGAN       SUNNY     63  41  44 VRB5      29.91F
DUPAGE AIRPORT SUNNY     63  42  46 NW7       29.94F
KANKAKEE*      SUNNY     62  39  42 N7        29.97S
WHEELING       MOSUNNY   63  40  42 VRB5      29.94F
MORRIS*        SUNNY     62  45  53 N6        29.95F
ROMEOVILLE*    MOSUNNY   61  42  50 W7        29.96S
NORTHERLY ISL    N/A     63  36  36 E1          N/A
NORTHERLY ISL    N/A     63  36  36 E1          N/A
$$

LMZ740>746-031700-
SOUTHERN LAKE MICHIGAN

STATION/POSITION SKY/WX   TEMP    WIND        PRES    VSBY  WAVE
                          AIR SEA DIR/SP/G                  HT/PER
                          (F)     (DEG/KT/KT) (MB)    (MI)  (FT/S)
SOUTHERN BUOY              43 41  190/ 10/ 10 1013.3F         0
HARRISON CRIB              58     160/  2/  2   N/A
BURNHAM HARBOR             63     300/  3/  8   N/A
CALUMET HARBOR             59     290/  6/  8 1013.9F
BURNS HARBOR               53      CALM  /  1 1015.2F
MICHIGAN CITY              47     220/  4/  5   N/A
ST. JOSEPH                 47 48                N/A           1
$$

ILZ025>027-034>036-040-047-049-050-058-095>099-031700-
WEST-CENTRAL ILLINOIS

CITY           SKY/WX    TMP DP  RH WIND       PRES   REMARKS
QUINCY         MOSUNNY   60  42  51 NW12      30.04F
GALESBURG*     SUNNY     62  47  58 NW13      30.01F
MACOMB*        SUNNY     62  43  49 NW9       30.04F
JACKSONVILLE*  MOSUNNY   61  43  51 NW10      30.03S
PITTSFIELD*    SUNNY     60  45  55 W8        30.05S
$$

ILZ028>032-037-038-041>044-048-051>054-059>061-031700-
CENTRAL ILLINOIS

CITY           SKY/WX    TMP DP  RH WIND       PRES   REMARKS
PONTIAC        SUNNY     62  48  60 NW8       29.98F
BLOOMINGTON    SUNNY     62  45  53 N13       30.00F
DECATUR        SUNNY     62  43  49 N8G18     30.00F
PEORIA         SUNNY     63  43  48 NW6       30.00F
LACON*         SUNNY     62  44  51 NW8       29.98F
LINCOLN*       SUNNY     62  46  56 NW5       30.00F
SPRINGFIELD    SUNNY     63  44  50 N9        30.02F
TAYLORVILLE    SUNNY     59  45  58 NW9       30.02S
$$

ILZ033-039-045-046-055>057-062-063-031700-
EAST-CENTRAL ILLINOIS

CITY           SKY/WX    TMP DP  RH WIND       PRES   REMARKS
CHAMPAIGN      SUNNY     62  40  44 NW12      29.99F
RANTOUL*       SUNNY     62  45  53 NW9G16    29.98F
MATTOON        SUNNY     60  42  51 N9        29.99F
PARIS*         MOSUNNY   59  47  63 NW7       30.00F
$$

ILZ079-100>102-031700-
SOUTHWEST ILLINOIS

CITY           SKY/WX    TMP DP  RH WIND       PRES   REMARKS
BELLEVILLE     MOSUNNY   62  45  55 N6        30.02S
CAHOKIA*       MOSUNNY   64  45  49 N8        30.03F
SPARTA*        PTSUNNY   60  48  63 NW7       30.04F
$$

ILZ064>066-069>071-074>076-080>082-084>086-088>090-092>094-031700-
SOUTH-CENTRAL ILLINOIS

CITY           SKY/WX    TMP DP  RH WIND       PRES   REMARKS
CARBONDALE     CLOUDY    60  46  59 N9        30.03S
CAIRO*         PTSUNNY   61  49  65 N7        30.03S
EFFINGHAM*     SUNNY     60  45  57 NW10G16   30.02F
MARION         CLOUDY    61  46  59 N12       30.03S
MT. VERNON     PTSUNNY   61  39  44 N5        30.02S
CENTRALIA*     PTSUNNY   62  46  55 NW8       30.01S
SALEM*         SUNNY     62  44  50 N12       30.01F
METROPOLIS*    CLOUDY    61  51  69 CALM      30.03S
$$

ILZ067-068-072-073-078-083-087-091-031700-
SOUTHEAST ILLINOIS

CITY           SKY/WX    TMP DP  RH WIND       PRES   REMARKS
LAWRENCEVILLE  CLOUDY    57  48  72 N15       29.99F
FLORA*         PTSUNNY   60  45  56 N6        30.01F
FAIRFIELD*     PTSUNNY   60  44  55 NW7       30.00S
HARRISBURG*    CLOUDY    60  44  56 N9        30.02S
ROBINSON*      PTSUNNY   56  49  75 N10       30.00F
CARMI*         PTSUNNY   59  45  60 NW10G16   30.00S
$$

ABBREVIATIONS USED IN REMARKS
   TC - TEMPERATURE IN CELSIUS
  WCI - WIND CHILL INDEX
   HX - HEAT INDEX
  VSB - VISIBILITY
$$




USA.gov is the U.S. government's official web portal to all federal, state and local government web resources and services.